Location: Aufkirchen
(47.9603°N, 11.3653°E)
Time: 15:03:06
(UTC+01:00)

Transit 2A Rocket - Pass Details

Date: 10 December 2020
Orbit: 592 x 910 km, 66.7° (Epoch: 21 January)

Event Time Altitude Azimuth Distance (km) Brightness Sun altitude
Rises 01:48:50 0° 265° (W) 3,431 - -57.8°
Reaches altitude 10° 01:52:05 10° 282° (WNW) 2,445 - -57.4°
Maximum altitude 01:56:06 20° 328° (NNW) 1,800 - -56.9°
Drops below altitude 10° 01:59:54 10° 14° (NNE) 2,300 - -56.4°
Sets 02:02:52 0° 32° (NNE) 3,162 - -56.0°
